This is the latest recevied weather packets stored in our database for station/object W4SKW. If no packets are shown the sender has not sent any weather packets the latest 10 day(s).
| Time | Temp. | Humidity | Pressure | Rain* | Wind** | Luminosity | Snow |
|---|---|---|---|---|---|---|---|
| 1777475126 | 21.11° C | 86% | 1015.1 hPa | 0 mm | - | 199 W/m² | - |
| 1777474824 | 20.56° C | 86% | 1015.2 hPa | 0 mm | - | 241 W/m² | - |
| 1777474519 | 20.56° C | 91% | 1015.2 hPa | 0 mm | - | 191 W/m² | - |
| 1777474216 | 20.56° C | 90% | 1015.6 hPa | 0 mm | - | 155 W/m² | - |
| 1777473913 | 20.56° C | 86% | 1015.6 hPa | 0 mm | - | 106 W/m² | - |
| 1777473610 | 20° C | 88% | 1015.7 hPa | 0 mm | - | 187 W/m² | - |
| 1777473038 | 19.44° C | 92% | 1015.4 hPa | 0 mm | - | 179 W/m² | - |
| 1777472734 | 19.44° C | 92% | 1015.4 hPa | 0 mm | - | 179 W/m² | - |
| 1777472431 | 20° C | 91% | 1015.4 hPa | 0 mm | - | 139 W/m² | - |
| 1777472129 | 20° C | 90% | 1015.3 hPa | 0 mm | - | 136 W/m² | - |
| 1777471828 | 20° C | 90% | 1015.3 hPa | 0 mm | - | 136 W/m² | - |
| 1777471525 | 20° C | 88% | 1015.3 hPa | 0 mm | - | 159 W/m² | - |
| 1777471222 | 19.44° C | 91% | 1015.5 hPa | 0 mm | - | 166 W/m² | - |
| 1777470919 | 19.44° C | 91% | 1015.4 hPa | 0 mm | - | 126 W/m² | - |
| 1777470616 | 19.44° C | 92% | 1015.3 hPa | 0 mm | - | 182 W/m² | - |
| 1777470312 | 18.89° C | 93% | 1015.3 hPa | 0 mm | - | 93 W/m² | - |
| 1777470009 | 18.89° C | 94% | 1015.1 hPa | 0 mm | - | 98 W/m² | - |
| 1777469704 | 18.89° C | 93% | 1014.9 hPa | 0 mm | - | 103 W/m² | - |
| 1777469401 | 18.89° C | 94% | 1014.8 hPa | 0 mm | - | 116 W/m² | - |
| 1777469101 | 18.89° C | 94% | 1014.8 hPa | 0 mm | - | 118 W/m² | - |
| 1777468795 | 18.33° C | 97% | 1015 hPa | 0 mm | - | 109 W/m² | - |
| 1777468492 | 18.33° C | 97% | 1015 hPa | 0 mm | - | 109 W/m² | - |
| 1777468189 | 17.78° C | 97% | 1015.4 hPa | 0 mm | - | 123 W/m² | - |
| 1777467884 | 17.78° C | 97% | 1015.4 hPa | 0 mm | - | 123 W/m² | - |
| 1777467580 | 17.78° C | 97% | 1015.3 hPa | 0 mm | - | 120 W/m² | - |
* Rain latest hour (hover to see other rain measurements)
** Current wind speed in m/s (hover to see current wind gust speed)